| time (UTC) | temp C | wind direction | speed KPH | gust KPH | rain 1hr cm | rain 24hr cm | rain mn cm | humidity % | barometer mb |
| 20260504205613 | 26 | 221 | 20.9 | 25.7 | 0.00 | 0.00 | 0.00 | 42 | 1007.3 |
| 20260504205110 | 26 | 248 | 24.1 | 29.0 | 0.00 | 0.00 | 0.00 | 42 | 1007.3 |
| 20260504204609 | 26 | 225 | 24.1 | 27.4 | 0.00 | 0.00 | 0.00 | 42 | 1007.1 |
| 20260504204107 | 26 | 237 | 20.9 | 25.7 | 0.00 | 0.00 | 0.00 | 42 | 1007.4 |
| 20260504203605 | 25 | 230 | 16.1 | 24.1 | 0.00 | 0.00 | 0.00 | 43 | 1007.7 |
| 20260504203102 | 26 | 239 | 16.1 | 20.9 | 0.00 | 0.00 | 0.00 | 44 | 1007.6 |
| 20260504202557 | 26 | 244 | 25.7 | 30.6 | 0.00 | 0.00 | 0.00 | 41 | 1007.7 |
| 20260504202054 | 26 | 249 | 14.5 | 20.9 | 0.00 | 0.00 | 0.00 | 41 | 1007.9 |
| 20260504201551 | 26 | 221 | 9.7 | 12.9 | 0.00 | 0.00 | 0.00 | 41 | 1007.7 |
| 20260504201049 | 26 | 216 | 17.7 | 22.5 | 0.00 | 0.00 | 0.00 | 41 | 1008.2 |
| 20260504200545 | 26 | 203 | 16.1 | 20.9 | 0.00 | 0.00 | 0.00 | 42 | 1008.0 |
| 20260504200042 | 26 | 225 | 29.0 | 33.8 | 0.00 | 0.00 | 0.00 | 41 | 1007.9 |
| 20260504195538 | 26 | 202 | 17.7 | 20.9 | 0.00 | 0.00 | 0.00 | 42 | 1008.3 |
| 20260504195035 | 25 | 213 | 24.1 | 30.6 | 0.00 | 0.00 | 0.00 | 41 | 1008.4 |
| 20260504194531 | 25 | 226 | 37.0 | 46.7 | 0.00 | 0.00 | 0.00 | 41 | 1008.4 |
| 20260504194027 | 26 | 215 | 19.3 | 24.1 | 0.00 | 0.00 | 0.00 | 41 | 1008.4 |
| 20260504193524 | 26 | 218 | 19.3 | 22.5 | 0.00 | 0.00 | 0.00 | 43 | 1008.6 |
| 20260504193023 | 26 | 203 | 20.9 | 22.5 | 0.00 | 0.00 | 0.00 | 42 | 1008.5 |
| 20260504192520 | 26 | 212 | 12.9 | 17.7 | 0.00 | 0.00 | 0.00 | 41 | 1008.7 |
| 20260504192018 | 26 | 255 | 12.9 | 14.5 | 0.00 | 0.00 | 0.00 | 43 | 1008.7 |
| 20260504191516 | 25 | 233 | 22.5 | 25.7 | 0.00 | 0.00 | 0.00 | 44 | 1008.6 |
| 20260504191012 | 25 | 214 | 20.9 | 24.1 | 0.00 | 0.00 | 0.00 | 43 | 1008.6 |
| 20260504190508 | 25 | 173 | 22.5 | 30.6 | 0.00 | 0.00 | 0.00 | 43 | 1008.8 |
| 20260504190004 | 25 | 239 | 24.1 | 30.6 | 0.00 | 0.00 | 0.00 | 43 | 1008.8 |
| 20260504185501 | 25 | 184 | 17.7 | 20.9 | 0.00 | 0.00 | 0.00 | 44 | 1009.0 |
| 20260504184958 | 26 | 196 | 24.1 | 30.6 | 0.00 | 0.00 | 0.00 | 42 | 1008.9 |
| 20260504184453 | 25 | 241 | 11.3 | 17.7 | 0.00 | 0.00 | 0.00 | 45 | 1009.2 |
| 20260504183949 | 25 | 210 | 27.4 | 29.0 | 0.00 | 0.00 | 0.00 | 43 | 1009.0 |
| 20260504183446 | 25 | 204 | 20.9 | 25.7 | 0.00 | 0.00 | 0.00 | 43 | 1009.2 |
| 20260504182944 | 25 | 247 | 25.7 | 30.6 | 0.00 | 0.00 | 0.00 | 43 | 1009.2 |
| 20260504182441 | 25 | 206 | 24.1 | 29.0 | 0.00 | 0.00 | 0.00 | 45 | 1009.5 |
| 20260504181938 | 25 | 224 | 22.5 | 30.6 | 0.00 | 0.00 | 0.00 | 46 | 1009.4 |
| 20260504181435 | 25 | 220 | 11.3 | 16.1 | 0.00 | 0.00 | 0.00 | 47 | 1009.4 |
| 20260504180934 | 25 | 196 | 17.7 | 20.9 | 0.00 | 0.00 | 0.00 | 46 | 1009.4 |
| 20260504180432 | 25 | 228 | 14.5 | 16.1 | 0.00 | 0.00 | 0.00 | 47 | 1009.5 |
| 20260504175930 | 25 | 208 | 27.4 | 30.6 | 0.00 | 0.00 | 0.00 | 46 | 1009.8 |
| 20260504175427 | 25 | 187 | 14.5 | 16.1 | 0.00 | 0.00 | 0.00 | 46 | 1009.7 |
| 20260504174925 | 25 | 224 | 20.9 | 25.7 | 0.00 | 0.00 | 0.00 | 45 | 1009.9 |
| 20260504174422 | 25 | 199 | 19.3 | 22.5 | 0.00 | 0.00 | 0.00 | 47 | 1009.9 |
| 20260504173919 | 25 | 262 | 6.4 | 11.3 | 0.00 | 0.00 | 0.00 | 49 | 1009.8 |
| 20260504173416 | 24 | 279 | 9.7 | 14.5 | 0.00 | 0.00 | 0.00 | 47 | 1009.8 |
| 20260504172913 | 24 | 277 | 20.9 | 27.4 | 0.00 | 0.00 | 0.00 | 48 | 1010.0 |
| 20260504172409 | 24 | 209 | 14.5 | 20.9 | 0.00 | 0.00 | 0.00 | 48 | 1010.1 |
| 20260504171905 | 24 | 241 | 9.7 | 14.5 | 0.00 | 0.00 | 0.00 | 52 | 1010.1 |
| 20260504171403 | 25 | 320 | 14.5 | 22.5 | 0.00 | 0.00 | 0.00 | 48 | 1010.3 |
| 20260504170900 | 23 | 277 | 14.5 | 16.1 | 0.00 | 0.00 | 0.00 | 51 | 1010.5 |
| 20260504170356 | 23 | 230 | 19.3 | 27.4 | 0.00 | 0.00 | 0.00 | 51 | 1010.4 |
| 20260504160315 | 23 | 237 | 9.7 | 11.3 | 0.00 | 0.00 | 0.00 | 54 | 1011.0 |
| 20260504150739 | 22 | 202 | 8.0 | 9.7 | 0.00 | 0.00 | 0.00 | 61 | 1011.4 |
| 20260504150236 | 22 | 175 | 11.3 | 16.1 | 0.00 | 0.00 | 0.00 | 61 | 1011.3 |
| 20260504141206 | 20 | 204 | 11.3 | 14.5 | 0.00 | 0.00 | 0.00 | 68 | 1011.5 |
| 20260504140703 | 20 | 225 | 12.9 | 14.5 | 0.00 | 0.00 | 0.00 | 68 | 1011.7 |
| 20260504140158 | 20 | 253 | 11.3 | 14.5 | 0.00 | 0.00 | 0.00 | 69 | 1011.6 |
| 20260504130626 | 17 | 197 | 3.2 | 4.8 | 0.00 | 0.00 | 0.00 | 77 | 1011.5 |
| 20260504130123 | 16 | 200 | 4.8 | 4.8 | 0.00 | 0.00 | 0.00 | 77 | 1011.2 |
| 20260504110514 | 15 | 202 | 4.8 | 4.8 | 0.00 | 0.00 | 0.00 | 78 | 1010.6 |
| 20260504100431 | 15 | 217 | 6.4 | 9.7 | 0.00 | 0.00 | 0.00 | 76 | 1010.7 |
| 20260504081824 | 15 | 203 | 6.4 | 6.4 | 0.00 | 0.00 | 0.00 | 72 | 1011.1 |
| 20260504081321 | 15 | 205 | 6.4 | 6.4 | 0.00 | 0.00 | 0.00 | 71 | 1011.1 |
| 20260504080816 | 15 | 209 | 8.0 | 9.7 | 0.00 | 0.00 | 0.00 | 71 | 1011.0 |
| 20260504080314 | 15 | 210 | 8.0 | 9.7 | 0.00 | 0.00 | 0.00 | 71 | 1011.0 |
| 20260504070241 | 15 | 199 | 9.7 | 11.3 | 0.00 | 0.00 | 0.00 | 68 | 1011.5 |
| 20260504060202 | 15 | 235 | 8.0 | 9.7 | 0.00 | 0.00 | 0.00 | 67 | 1012.2 |
| 20260504050630 | 15 | 208 | 4.8 | 6.4 | 0.00 | 0.00 | 0.00 | 67 | 1012.4 |
| 20260504050127 | 15 | 192 | 1.6 | 3.2 | 0.00 | 0.00 | 0.00 | 68 | 1012.6 |
| 20260504045623 | 15 | 210 | 1.6 | 3.2 | 0.00 | 0.00 | 0.00 | 68 | 1012.4 |
| 20260504045118 | 15 | 227 | 1.6 | 1.6 | 0.00 | 0.00 | 0.00 | 68 | 1012.5 |
| 20260504044617 | 15 | 218 | 4.8 | 4.8 | 0.00 | 0.00 | 0.00 | 66 | 1012.4 |
| 20260504044113 | 15 | 245 | 4.8 | 4.8 | 0.00 | 0.00 | 0.00 | 67 | 1012.5 |
| 20260504043610 | 15 | 211 | 3.2 | 3.2 | 0.00 | 0.00 | 0.00 | 67 | 1012.5 |
| 20260504043108 | 15 | 226 | 3.2 | 3.2 | 0.00 | 0.00 | 0.00 | 67 | 1012.4 |
| 20260504042605 | 15 | 176 | 1.6 | 1.6 | 0.00 | 0.00 | 0.00 | 67 | 1012.6 |
| 20260504042101 | 15 | 203 | 3.2 | 3.2 | 0.00 | 0.00 | 0.00 | 65 | 1012.6 |
| 20260504041557 | 15 | 214 | 4.8 | 4.8 | 0.00 | 0.00 | 0.00 | 65 | 1012.5 |
| 20260504041054 | 15 | 196 | 4.8 | 4.8 | 0.00 | 0.00 | 0.00 | 64 | 1012.3 |
| 20260504040551 | 15 | 233 | 3.2 | 4.8 | 0.00 | 0.00 | 0.00 | 64 | 1012.5 |
| 20260504040047 | 15 | 207 | 1.6 | 1.6 | 0.00 | 0.00 | 0.00 | 65 | 1012.6 |
| 20260504035544 | 15 | 212 | 3.2 | 3.2 | 0.00 | 0.00 | 0.00 | 64 | 1012.5 |
| 20260504035040 | 15 | 222 | 3.2 | 3.2 | 0.00 | 0.00 | 0.00 | 64 | 1012.5 |
| 20260504034539 | 15 | 209 | 3.2 | 3.2 | 0.00 | 0.00 | 0.00 | 65 | 1012.6 |
| 20260504034035 | 15 | 210 | 3.2 | 3.2 | 0.00 | 0.00 | 0.00 | 64 | 1012.7 |
| 20260504033533 | 15 | 212 | 3.2 | 3.2 | 0.00 | 0.00 | 0.00 | 64 | 1012.9 |
| 20260504033030 | 15 | 201 | 1.6 | 1.6 | 0.00 | 0.00 | 0.00 | 64 | 1012.9 |
| 20260504032527 | 15 | 206 | 3.2 | 3.2 | 0.00 | 0.00 | 0.00 | 63 | 1012.8 |
| 20260504032024 | 15 | 190 | 1.6 | 3.2 | 0.00 | 0.00 | 0.00 | 64 | 1012.9 |
| 20260504031521 | 15 | 191 | 3.2 | 3.2 | 0.00 | 0.00 | 0.00 | 63 | 1012.9 |
| 20260504031017 | 16 | 206 | 3.2 | 3.2 | 0.00 | 0.00 | 0.00 | 62 | 1013.1 |
| 20260504030515 | 16 | 210 | 3.2 | 3.2 | 0.00 | 0.00 | 0.00 | 61 | 1012.9 |
| 20260504030011 | 16 | 200 | 3.2 | 3.2 | 0.00 | 0.00 | 0.00 | 61 | 1013.1 |
| 20260504025508 | 16 | 187 | 1.6 | 1.6 | 0.00 | 0.00 | 0.00 | 60 | 1013.0 |
| 20260504025005 | 16 | 187 | 1.6 | 1.6 | 0.00 | 0.00 | 0.00 | 60 | 1013.1 |
| 20260504024502 | 16 | 205 | 1.6 | 3.2 | 0.00 | 0.00 | 0.00 | 60 | 1012.9 |
| 20260504023959 | 16 | 200 | 3.2 | 3.2 | 0.00 | 0.00 | 0.00 | 58 | 1013.0 |
| 20260504023455 | 16 | 200 | 3.2 | 3.2 | 0.00 | 0.00 | 0.00 | 58 | 1013.1 |
| 20260504022951 | 16 | 199 | 1.6 | 1.6 | 0.00 | 0.00 | 0.00 | 57 | 1013.1 |
| 20260504022447 | 16 | 199 | 0.0 | 0.0 | 0.00 | 0.00 | 0.00 | 56 | 1012.8 |
| 20260504021944 | 16 | 199 | 0.0 | 0.0 | 0.00 | 0.00 | 0.00 | 56 | 1012.8 |
| 20260504021441 | 16 | 200 | 0.0 | 0.0 | 0.00 | 0.00 | 0.00 | 56 | 1012.8 |
| 20260504020938 | 17 | 199 | 0.0 | 0.0 | 0.00 | 0.00 | 0.00 | 56 | 1012.7 |
| 20260504020435 | 16 | 199 | 0.0 | 0.0 | 0.00 | 0.00 | 0.00 | 56 | 1012.7 |
| 20260504015932 | 16 | 199 | 0.0 | 0.0 | 0.00 | 0.00 | 0.00 | 59 | 1012.7 |
| 20260504015427 | 16 | 199 | 0.0 | 0.0 | 0.00 | 0.00 | 0.00 | 57 | 1012.8 |
| 20260504014923 | 17 | 199 | 0.0 | 0.0 | 0.00 | 0.00 | 0.00 | 53 | 1012.5 |
| 20260504014420 | 17 | 199 | 0.0 | 0.0 | 0.00 | 0.00 | 0.00 | 51 | 1012.6 |
| 20260504013917 | 17 | 199 | 0.0 | 0.0 | 0.00 | 0.00 | 0.00 | 52 | 1012.6 |
| 20260504013415 | 17 | 199 | 0.0 | 0.0 | 0.00 | 0.00 | 0.00 | 51 | 1012.7 |
| 20260504012911 | 17 | 178 | 0.0 | 0.0 | 0.00 | 0.00 | 0.00 | 52 | 1012.7 |
| 20260504012409 | 17 | 178 | 0.0 | 0.0 | 0.00 | 0.00 | 0.00 | 52 | 1012.5 |
| 20260504011906 | 17 | 178 | 0.0 | 0.0 | 0.00 | 0.00 | 0.00 | 53 | 1012.6 |
| 20260504011403 | 17 | 178 | 0.0 | 0.0 | 0.00 | 0.00 | 0.00 | 53 | 1012.5 |
| 20260504010859 | 18 | 178 | 0.0 | 0.0 | 0.00 | 0.00 | 0.00 | 51 | 1012.9 |
| 20260504010354 | 18 | 178 | 0.0 | 0.0 | 0.00 | 0.00 | 0.00 | 50 | 1012.7 |
| 20260504005845 | 18 | 178 | 0.0 | 1.6 | 0.00 | 0.00 | 0.00 | 48 | 1012.5 |
| 20260504005342 | 19 | 178 | 1.6 | 1.6 | 0.00 | 0.00 | 0.00 | 47 | 1012.6 |
| 20260504004840 | 19 | 177 | 0.0 | 1.6 | 0.00 | 0.00 | 0.00 | 47 | 1012.6 |
| 20260504004337 | 20 | 177 | 1.6 | 1.6 | 0.00 | 0.00 | 0.00 | 46 | 1012.6 |
| 20260504003834 | 20 | 224 | 1.6 | 1.6 | 0.00 | 0.00 | 0.00 | 46 | 1012.8 |
| 20260504003331 | 20 | 206 | 1.6 | 1.6 | 0.00 | 0.00 | 0.00 | 45 | 1012.6 |
| 20260504002827 | 20 | 227 | 1.6 | 1.6 | 0.00 | 0.00 | 0.00 | 43 | 1012.6 |
| 20260504002324 | 21 | 204 | 3.2 | 3.2 | 0.00 | 0.00 | 0.00 | 43 | 1012.6 |
| 20260504001822 | 21 | 234 | 3.2 | 4.8 | 0.00 | 0.00 | 0.00 | 42 | 1012.6 |
| 20260504001319 | 21 | 201 | 6.4 | 9.7 | 0.00 | 0.00 | 0.00 | 41 | 1012.6 |
| 20260504000815 | 21 | 194 | 4.8 | 4.8 | 0.00 | 0.00 | 0.00 | 40 | 1012.7 |
| 20260504000313 | 21 | 232 | 6.4 | 6.4 | 0.00 | 0.00 | 0.00 | 41 | 1012.9 |
| 20260503235810 | 21 | 194 | 4.8 | 4.8 | 0.00 | 0.00 | 0.00 | 40 | 1012.8 |
| 20260503235308 | 21 | 218 | 6.4 | 6.4 | 0.00 | 0.00 | 0.00 | 39 | 1012.7 |
| 20260503234805 | 21 | 230 | 8.0 | 9.7 | 0.00 | 0.00 | 0.00 | 39 | 1012.7 |
| 20260503234303 | 21 | 232 | 6.4 | 6.4 | 0.00 | 0.00 | 0.00 | 39 | 1012.8 |
| 20260503233800 | 22 | 211 | 9.7 | 9.7 | 0.00 | 0.00 | 0.00 | 37 | 1012.8 |
| 20260503233255 | 22 | 237 | 9.7 | 11.3 | 0.00 | 0.00 | 0.00 | 37 | 1013.2 |
| 20260503232753 | 22 | 210 | 6.4 | 6.4 | 0.00 | 0.00 | 0.00 | 37 | 1012.8 |
| 20260503232250 | 22 | 237 | 8.0 | 11.3 | 0.00 | 0.00 | 0.00 | 38 | 1012.9 |
| 20260503231748 | 22 | 198 | 6.4 | 6.4 | 0.00 | 0.00 | 0.00 | 38 | 1013.2 |
| 20260503231245 | 22 | 207 | 12.9 | 14.5 | 0.00 | 0.00 | 0.00 | 36 | 1013.0 |
| 20260503230740 | 22 | 239 | 11.3 | 12.9 | 0.00 | 0.00 | 0.00 | 37 | 1013.2 |
| 20260503230238 | 22 | 215 | 11.3 | 12.9 | 0.00 | 0.00 | 0.00 | 36 | 1013.1 |
| 20260503225736 | 22 | 248 | 6.4 | 11.3 | 0.00 | 0.00 | 0.00 | 38 | 1013.1 |
| 20260503225236 | 22 | 239 | 6.4 | 6.4 | 0.00 | 0.00 | 0.00 | 39 | 1013.4 |
| 20260503224733 | 22 | 220 | 9.7 | 11.3 | 0.00 | 0.00 | 0.00 | 36 | 1013.2 |
| 20260503224231 | 22 | 237 | 8.0 | 11.3 | 0.00 | 0.00 | 0.00 | 37 | 1013.4 |
| 20260503223728 | 22 | 199 | 11.3 | 12.9 | 0.00 | 0.00 | 0.00 | 35 | 1013.5 |
| 20260503223225 | 22 | 220 | 6.4 | 9.7 | 0.00 | 0.00 | 0.00 | 35 | 1013.4 |
| 20260503222721 | 22 | 251 | 6.4 | 6.4 | 0.00 | 0.00 | 0.00 | 35 | 1013.5 |
| 20260503222219 | 22 | 255 | 9.7 | 12.9 | 0.00 | 0.00 | 0.00 | 36 | 1013.6 |
| 20260503221718 | 22 | 187 | 9.7 | 11.3 | 0.00 | 0.00 | 0.00 | 38 | 1013.6 |
| 20260503221215 | 22 | 187 | 11.3 | 12.9 | 0.00 | 0.00 | 0.00 | 36 | 1013.5 |
| 20260503220711 | 22 | 218 | 9.7 | 12.9 | 0.00 | 0.00 | 0.00 | 35 | 1013.8 |
| 20260503220208 | 22 | 191 | 3.2 | 3.2 | 0.00 | 0.00 | 0.00 | 34 | 1013.6 |
| 20260503215705 | 22 | 254 | 6.4 | 9.7 | 0.00 | 0.00 | 0.00 | 35 | 1013.9 |
| 20260503215202 | 22 | 207 | 12.9 | 14.5 | 0.00 | 0.00 | 0.00 | 36 | 1013.8 |
| 20260503214700 | 22 | 289 | 4.8 | 6.4 | 0.00 | 0.00 | 0.00 | 36 | 1014.0 |
| 20260503214155 | 22 | 279 | 6.4 | 6.4 | 0.00 | 0.00 | 0.00 | 35 | 1014.1 |
| 20260503213649 | 22 | 234 | 9.7 | 11.3 | 0.00 | 0.00 | 0.00 | 35 | 1014.2 |
| 20260503213146 | 22 | 306 | 6.4 | 9.7 | 0.00 | 0.00 | 0.00 | 35 | 1014.1 |
| 20260503212643 | 22 | 198 | 9.7 | 14.5 | 0.00 | 0.00 | 0.00 | 33 | 1014.2 |
| 20260503212141 | 22 | 267 | 4.8 | 6.4 | 0.00 | 0.00 | 0.00 | 34 | 1014.3 |
| 20260503211638 | 22 | 242 | 12.9 | 14.5 | 0.00 | 0.00 | 0.00 | 35 | 1014.6 |
| 20260503211133 | 22 | 234 | 11.3 | 12.9 | 0.00 | 0.00 | 0.00 | 34 | 1014.5 |
| 20260503210630 | 21 | 214 | 8.0 | 9.7 | 0.00 | 0.00 | 0.00 | 36 | 1014.6 |
| 20260503210127 | 22 | 237 | 16.1 | 20.9 | 0.00 | 0.00 | 0.00 | 35 | 1014.8 |